Tracking 18840 objects as of 18-November-2017
HD Live streaming from Space Station
objects crossing your sky now

COSMOS 1856

Track COSMOS 1856 now!
10-day predictions
COSMOS 1856 is classified as:


NORAD ID: 18117
Int'l Code: 1987-051E
Perigee: 1,437.6 km
Apogee: 1,484.9 km
Inclination: 74.0 °
Period: 115.0 minutes
Semi major axis: 7832 km
RCS: 0.6718 m2 (medium)
Launch date: June 16, 1987
Source: Commonwealth of Independent States (former USSR) (CIS)
Launch site: PLESETSK MISSILE AND SPACE COMPLEX (PKMTR)
aabbcc
Your satellite tracking list
Your tracking list is empty




NASA's NSSDC Master Catalog

Two Line Element Set (TLE):
1 18117U 87051E   17321.48474469 -.00000039 +00000-0 -14155-3 0  9992
2 18117 074.0043 084.2013 0030221 283.9265 141.1887 12.52483289390993
Source of the keplerian elements: AFSPC